This is the latest recevied weather packets stored in our database for station/object 2E0RGX-13. If no packets are shown the sender has not sent any weather packets the latest 10 day(s).
| Time | Temp. | Humidity | Pressure | Rain* | Wind** | Luminosity | Snow |
|---|---|---|---|---|---|---|---|
| 1777225371 | 15.56° C | 60% | 1020.9 hPa | 0 mm | - | 1 W/m² | - |
| 1777225067 | 15.56° C | 59% | 1020.7 hPa | 0 mm | - | 1 W/m² | - |
| 1777224763 | 15.56° C | 60% | 1020.9 hPa | 0 mm | - | 1 W/m² | - |
| 1777224459 | 15.56° C | 58% | 1020.7 hPa | 0 mm | - | 1 W/m² | - |
| 1777224155 | 16.11° C | 57% | 1020.8 hPa | 0 mm | - | 1 W/m² | - |
| 1777223851 | 16.11° C | 57% | 1020.6 hPa | 0 mm | - | 1 W/m² | - |
| 1777223547 | 15.56° C | 57% | 1021 hPa | 0 mm | - | 1 W/m² | - |
| 1777223243 | 16.11° C | 56% | 1020.8 hPa | 0 mm | - | 1 W/m² | - |
| 1777222939 | 16.67° C | 56% | 1020.9 hPa | 0 mm | - | 1 W/m² | - |
| 1777222635 | 16.67° C | 57% | 1020.8 hPa | 0 mm | - | 1 W/m² | - |
| 1777222331 | 16.11° C | 56% | 1021 hPa | 0 mm | - | 1 W/m² | - |
| 1777222027 | 16.11° C | 57% | 1020.7 hPa | 0 mm | - | 1 W/m² | - |
| 1777221723 | 16.11° C | 56% | 1021 hPa | 0 mm | - | 1 W/m² | - |
| 1777221419 | 16.67° C | 55% | 1020.9 hPa | 0 mm | - | 1 W/m² | - |
| 1777221115 | 16.67° C | 54% | 1021 hPa | 0 mm | - | 1 W/m² | - |
| 1777220811 | 16.67° C | 52% | 1020.9 hPa | 0 mm | - | 1 W/m² | - |
| 1777220507 | 16.67° C | 52% | 1021.1 hPa | 0 mm | - | 1 W/m² | - |
| 1777220203 | 16.67° C | 52% | 1021 hPa | 0 mm | - | 1 W/m² | - |
| 1777219899 | 16.67° C | 52% | 1021 hPa | 0 mm | - | 1 W/m² | - |
| 1777219595 | 16.67° C | 51% | 1021.1 hPa | 0 mm | - | 1 W/m² | - |
| 1777219291 | 17.22° C | 50% | 1021 hPa | 0 mm | - | 1 W/m² | - |
| 1777218987 | 17.22° C | 50% | 1020.8 hPa | 0 mm | - | 1 W/m² | - |
| 1777218683 | 17.78° C | 48% | 1020.8 hPa | 0 mm | - | 1 W/m² | - |
| 1777218379 | 17.22° C | 48% | 1020.9 hPa | 0 mm | - | 1 W/m² | - |
| 1777218075 | 17.78° C | 47% | 1020.8 hPa | 0 mm | - | 1 W/m² | - |
* Rain latest hour (hover to see other rain measurements)
** Current wind speed in m/s (hover to see current wind gust speed)